Location: French Creek State Gamelands
(40.1750°N, 75.7969°W)
Time: 00:26:34
(UTC-04:00)

ISS - All Passes

Search period start: 24 September 2014 00:00
Search period end: 04 October 2014 00:00
Orbit: 413 x 416 km, 51.6° (Epoch: 23 September)

Date Brightness Start Highest point End Pass type
(mag) Time Alt. Az. Time Alt. Az. Time Alt. Az.
24 Sep - 00:01:46 10° SE 00:02:44 11° SE 00:03:43 10° ESE night (unlit)
24 Sep - 01:35:40 10° WSW 01:39:00 78° NW 01:42:20 10° NE night (unlit)
24 Sep - 03:13:49 10° WNW 03:16:08 17° NNW 03:18:28 10° NNE visible
24 Sep - 04:52:39 10° NNW 04:53:54 12° N 04:55:10 10° NNE visible
24 Sep - 06:28:55 10° NNW 06:31:35 22° NNE 06:34:14 10° ENE daylight
24 Sep - 08:05:14 10° WNW 08:08:32 63° SW 08:11:49 10° SE daylight
25 Sep - 00:46:49 10° SW 00:50:05 57° SE 00:53:22 10° ENE night (unlit)
25 Sep - 02:24:17 10° WNW 02:27:00 23° NNW 02:29:43 10° NNE night (unlit)
25 Sep - 04:03:22 10° NNW 04:04:39 12° N 04:05:56 10° NNE visible
25 Sep - 05:40:10 10° NNW 05:42:26 17° NNE 05:44:41 10° ENE visible
25 Sep - 07:16:17 10° NW 07:19:36 72° NE 07:22:55 10° ESE daylight
25 Sep - 08:54:33 10° WSW 08:55:53 12° SW 08:57:14 10° SSW daylight
25 Sep - 23:58:14 10° SSW 00:01:13 31° SE 00:04:12 10° ENE night (unlit)
26 Sep - 01:34:51 10° W 01:37:53 32° NNW 01:40:56 10° NE night (unlit)
26 Sep - 03:13:49 10° NW 03:15:23 13° N 03:16:58 10° NNE visible
26 Sep - 04:51:23 10° NNW 04:53:13 14° NNE 04:55:02 10° NE visible
26 Sep - 06:27:24 10° NW 06:30:36 42° NNE 06:33:47 10° ESE visible
26 Sep - 08:04:31 10° W 08:07:07 21° SW 08:09:42 10° S daylight
26 Sep - 23:10:06 10° S 23:12:23 17° SE 23:14:41 10° E night (unlit)
27 Sep - 00:45:34 10° WSW 00:48:49 50° NNW 00:52:05 10° NE night (unlit)
27 Sep - 02:24:09 10° NW 02:26:08 15° NNW 02:28:07 10° NNE night (unlit)
27 Sep - 04:02:30 10° NNW 04:03:56 12° N 04:05:23 10° NNE visible
27 Sep - 05:38:34 10° NW 05:41:30 28° NNE 05:44:25 10° E visible
27 Sep - 07:15:08 10° WNW 07:18:15 38° SW 07:21:22 10° SSE daylight
27 Sep - 23:56:28 10° SW 23:59:47 88° NW 00:03:08 10° NE night (unlit)
28 Sep - 01:34:28 10° WNW 01:36:53 18° NNW 01:39:18 10° NNE night (unlit)
28 Sep - 03:13:23 10° NNW 03:14:37 12° N 03:15:52 10° NNE visible
28 Sep - 04:49:44 10° NNW 04:52:19 20° NNE 04:54:53 10° ENE visible
28 Sep - 06:26:00 10° WNW 06:29:19 72° SW 06:32:37 10° SE visible
28 Sep - 23:07:35 10° SW 23:10:48 49° SE 23:14:02 10° ENE night (unlit)
29 Sep - 00:44:52 10° W 00:47:39 24° NNW 00:50:28 10° NNE night (unlit)
29 Sep - 02:23:57 10° NNW 02:25:17 12° N 02:26:36 10° NNE night (unlit)
29 Sep - 04:00:54 10° NNW 04:03:04 16° NNE 04:05:13 10° ENE visible
29 Sep - 05:36:58 10° NW 05:40:17 63° NE 05:43:35 10° ESE visible
29 Sep - 07:14:51 10° W 07:16:37 14° SW 07:18:22 10° SSW daylight
29 Sep - 22:19:00 10° SSW 22:21:51 27° SE 22:24:44 10° ENE night (unlit)
29 Sep - 23:55:23 10° W 23:58:28 35° NNW 00:01:34 10° NE night (unlit)
30 Sep - 01:34:16 10° NW 01:35:55 13° N 01:37:35 10° NNE night (unlit)
30 Sep - 03:12:01 10° NNW 03:13:45 13° N 03:15:28 10° NE night (unlit)
30 Sep - 04:48:01 10° NW 04:51:10 38° NNE 04:54:18 10° E visible
30 Sep - 06:24:58 10° WNW 06:27:44 24° SW 06:30:29 10° S visible
30 Sep - 21:30:55 10° SSE 21:32:57 15° SE 21:34:59 10° E night (unlit)
30 Sep - 23:06:02 10° WSW 23:09:19 57° NW 23:12:37 10° NE night (unlit)
01 Oct - 00:44:30 10° NW 00:46:35 15° NNW 00:48:40 10° NNE night (unlit)
01 Oct - 02:23:00 10° NNW 02:24:22 12° N 02:25:45 10° NNE night (unlit)
01 Oct - 03:59:06 10° NNW 04:01:58 26° NNE 04:04:48 10° E visible
01 Oct - 05:35:35 10° WNW 05:38:46 44° SW 05:41:56 10° SSE visible
01 Oct - 22:16:53 10° SW 22:20:13 81° SE 22:23:33 10° NE night (unlit)
01 Oct - 23:54:44 10° WNW 23:57:15 19° NNW 23:59:45 10° NNE night (unlit)
02 Oct - 01:33:43 10° NNW 01:34:57 12° N 01:36:11 10° NNE night (unlit)
02 Oct - 03:10:11 10° NNW 03:12:40 19° NNE 03:15:09 10° ENE night (unlit)
02 Oct - 04:46:23 10° NW 04:49:43 83° SW 04:53:02 10° SE visible
02 Oct - 21:27:59 10° SSW 21:31:09 43° SE 21:34:20 10° ENE night (unlit)
02 Oct - 23:05:04 10° W 23:07:56 26° NNW 23:10:49 10° NE night (unlit)
03 Oct - 00:44:08 10° NNW 00:45:31 12° N 00:46:55 10° NNE night (unlit)
03 Oct - 02:21:15 10° NNW 02:23:19 15° NNE 02:25:22 10° NE night (unlit)
03 Oct - 03:57:17 10° NW 04:00:35 55° NE 04:03:51 10° ESE night (unlit)
03 Oct - 05:34:52 10° W 05:36:57 16° SW 05:39:02 10° S visible
03 Oct - 20:39:24 10° S 20:42:07 24° SE 20:44:51 10° ENE visible
03 Oct - 22:15:31 10° WSW 22:18:40 39° NNW 22:21:50 10° NE night (unlit)
03 Oct - 23:54:19 10° NW 23:56:05 14° N 23:57:50 10° NNE night (unlit)
